Change the Weather History Date:

Saturday, December 15, 2012

  Actual Average Record
Temperature  
Mean Temperature 39 °F 40 °F  
Max Temperature 41 °F 46 °F 55 °F (1980)
Min Temperature 36 °F 34 °F 21 °F (1967)
Degree Days  
Heating Degree Days 26 25  
Month to date heating degree days 367  
Since 1 July heating degree days 2081  
Cooling Degree Days 0 0  
Month to date cooling degree days 0  
Year to date cooling degree days 19  
Moisture  
Dew Point 37 °F    
Average Humidity 92    
Maximum Humidity 100    
Minimum Humidity 82    
Precipitation  
Precipitation 1.19 in 0.40 in 4.61 in (1999)
Month to date precipitation 6.54  
Year to date precipitation 93.09  
Sea Level Pressure  
Sea Level Pressure 29.58 in    
Wind  
Wind Speed 8 mph (South)    
Max Wind Speed 21 mph    
Max Gust Speed 33 mph    
Visibility 3 miles    
Events Rain    
T = Trace of Precipitation, MM = Missing Value Source: NWS Daily Summary

Daily Weather History Graph

Daily Weather History Graph

Search for Another Location

Airport or City:

Trip Planner

Search our weather history database for the weather conditions in past years. The results will help you decide how hot, cold, wet, or windy it might be!

Date:

Astronomy

Dec. 15, 2012 Rise Set
Actual Time 8:01 AM PST 4:25 PM PST
Civil Twilight 7:25 AM PST 5:02 PM PST
Nautical Twilight 6:45 AM PST 5:41 PM PST
Astronomical Twilight 6:07 AM PST 6:19 PM PST
Moon 9:49 AM PST (12/15) 7:47 PM PST (12/15)
Length of Visible Light 9h 36m
Length of Day
8h 24m
Waxing Crescent, 9% of the Moon is Illuminated
Dec 15
Waxing Crescent
Dec 19
First Quarter
Dec 28
Full
Jan 4
Last Quarter
Jan 11
New

Hourly Weather History & Observations

Time (PST) Temp. Windchill Dew Point Humidity Pressure Visibility Wind Dir Wind Speed Gust Speed Precip Events Conditions
12:53 AM 37.0 °F 33.3 °F 33.1 °F 86% 29.82 in 8.0 mi East 4.6 mph - N/A   Mostly Cloudy
1:53 AM 37.9 °F 33.5 °F 34.0 °F 86% 29.78 in 7.0 mi ESE 5.8 mph - 0.00 in Rain Light Rain
2:34 AM 39.2 °F 32.5 °F 35.6 °F 87% 29.76 in 3.0 mi SE 10.4 mph 17.3 mph 0.01 in Rain Light Rain
2:43 AM 39.2 °F 32.0 °F 35.6 °F 87% 29.76 in 4.0 mi SSE 11.5 mph 18.4 mph 0.01 in Rain Light Rain
2:53 AM 39.0 °F 32.8 °F 36.0 °F 89% 29.75 in 4.0 mi SSE 9.2 mph - 0.02 in Rain Light Rain
3:32 AM 39.2 °F 33.6 °F 37.4 °F 93% 29.72 in 4.0 mi SE 8.1 mph 18.4 mph 0.01 in Rain Light Rain
3:53 AM 39.9 °F 32.9 °F 37.0 °F 89% 29.72 in 3.0 mi SSE 11.5 mph 17.3 mph 0.02 in Rain Light Rain
4:21 AM 39.2 °F 34.2 °F 37.4 °F 93% 29.71 in 2.5 mi Variable 6.9 mph 20.7 mph 0.03 in Rain Light Rain
4:39 AM 39.2 °F 33.6 °F 37.4 °F 93% 29.69 in 3.0 mi SE 8.1 mph - 0.05 in Rain Light Rain
4:50 AM 39.2 °F 33.0 °F 37.4 °F 93% 29.68 in 2.5 mi SSE 9.2 mph - 0.06 in Rain Light Rain
4:53 AM 39.9 °F 32.9 °F 37.9 °F 93% 29.69 in 2.5 mi SE 11.5 mph 18.4 mph 0.06 in Rain Light Rain
5:13 AM 39.2 °F 31.6 °F 37.4 °F 93% 29.67 in 3.0 mi SSE 12.7 mph 20.7 mph 0.03 in Rain Light Rain
5:53 AM 39.0 °F 31.4 °F 37.9 °F 96% 29.65 in 4.0 mi SSE 12.7 mph 23.0 mph 0.06 in Rain Light Rain
6:53 AM 39.0 °F 32.8 °F 37.0 °F 93% 29.62 in 4.0 mi SE 9.2 mph 25.3 mph 0.06 in Rain Light Rain
7:53 AM 39.0 °F 31.8 °F 37.0 °F 93% 29.59 in 3.0 mi SSE 11.5 mph 19.6 mph 0.09 in Rain Light Rain
8:33 AM 39.2 °F 33.0 °F 37.4 °F 93% 29.56 in 2.5 mi SSE 9.2 mph 27.6 mph 0.06 in Rain Light Rain
8:53 AM 39.0 °F 30.6 °F 37.0 °F 93% 29.55 in 2.0 mi SSE 15.0 mph 28.8 mph 0.11 in Rain Rain
9:02 AM 39.2 °F 30.5 °F 37.4 °F 93% 29.53 in 1.5 mi SSE 16.1 mph 24.2 mph N/A Rain Rain
9:26 AM 37.4 °F 28.9 °F 35.6 °F 93% 29.53 in 2.0 mi SSE 13.8 mph 28.8 mph 0.06 in Rain Light Rain
9:36 AM 37.4 °F 29.8 °F 37.4 °F 100% 29.53 in 1.8 mi SSE 11.5 mph 25.3 mph 0.08 in Rain Light Rain
9:53 AM 39.0 °F 31.0 °F 37.0 °F 93% 29.52 in 1.5 mi SE 13.8 mph 28.8 mph 0.12 in Rain Light Rain
10:53 AM 39.0 °F 32.8 °F 37.0 °F 93% 29.51 in 1.8 mi South 9.2 mph 24.2 mph 0.09 in Rain Light Rain
11:10 AM 37.4 °F 32.1 °F 37.4 °F 100% 29.51 in 1.0 mi South 6.9 mph - 0.05 in Rain Rain
11:18 AM 39.2 °F 32.0 °F 37.4 °F 93% 29.52 in 0.8 mi South 11.5 mph 21.9 mph 0.09 in Rain Rain
11:26 AM 39.2 °F 33.6 °F 37.4 °F 93% 29.51 in 1.0 mi South 8.1 mph 18.4 mph 0.12 in Rain Rain
11:53 AM 39.0 °F 32.3 °F 37.9 °F 96% 29.51 in 1.2 mi SSW 10.4 mph 18.4 mph 0.17 in Rain Light Rain
12:11 PM 39.2 °F 33.0 °F 37.4 °F 93% 29.50 in 1.5 mi South 9.2 mph 17.3 mph 0.01 in Rain Light Rain
12:48 PM 39.2 °F 33.0 °F 37.4 °F 93% 29.50 in 1.5 mi South 9.2 mph - 0.05 in Rain Light Rain
12:53 PM 39.0 °F 34.0 °F 37.0 °F 93% 29.51 in 1.5 mi Variable 6.9 mph 17.3 mph 0.06 in Rain Light Rain
1:02 PM 39.2 °F 35.0 °F 37.4 °F 93% 29.49 in 2.0 mi Variable 5.8 mph - 0.00 in Rain Light Rain
1:19 PM 39.2 °F 33.6 °F 37.4 °F 93% 29.48 in 4.0 mi SSE 8.1 mph - 0.01 in Rain Light Rain
1:46 PM 39.2 °F 34.2 °F 37.4 °F 93% 29.48 in 5.0 mi SSE 6.9 mph - 0.01 in   Overcast
1:53 PM 39.9 °F - 37.9 °F 93% 29.49 in 5.0 mi Calm Calm - 0.01 in   Overcast
2:12 PM 39.2 °F 37.0 °F 39.2 °F 100% 29.49 in 3.0 mi SSW 3.5 mph - N/A   Overcast
2:32 PM 39.2 °F 37.0 °F 37.4 °F 93% 29.49 in 3.0 mi SSE 3.5 mph - 0.00 in Rain Light Rain
2:41 PM 39.2 °F 37.0 °F 37.4 °F 93% 29.49 in 1.8 mi Variable 3.5 mph - 0.01 in Rain Light Rain
2:53 PM 39.0 °F 35.7 °F 37.9 °F 96% 29.50 in 2.0 mi Variable 4.6 mph - 0.03 in Rain Light Rain
2:56 PM 39.2 °F 37.0 °F 37.4 °F 93% 29.50 in 3.0 mi South 3.5 mph - 0.00 in Rain Light Rain
3:04 PM 39.2 °F 37.0 °F 39.2 °F 100% 29.49 in 2.0 mi Variable 3.5 mph - 0.00 in Rain Light Rain
3:09 PM 39.2 °F - 37.4 °F 93% 29.49 in 1.2 mi Calm Calm - 0.01 in Rain Rain
3:20 PM 39.2 °F 35.0 °F 37.4 °F 93% 29.50 in 2.0 mi Variable 5.8 mph - 0.03 in Rain Light Rain
3:29 PM 39.2 °F 35.0 °F 37.4 °F 93% 29.50 in 1.8 mi Variable 5.8 mph - 0.03 in Rain Light Rain
3:36 PM 39.2 °F 35.0 °F 37.4 °F 93% 29.50 in 0.8 mi SSW 5.8 mph - 0.05 in Rain Rain
3:39 PM 39.2 °F 37.0 °F 37.4 °F 93% 29.50 in 1.0 mi Variable 3.5 mph - 0.06 in Rain Light Rain
3:44 PM 39.2 °F 34.2 °F 37.4 °F 93% 29.51 in 2.0 mi West 6.9 mph - 0.07 in Rain Light Rain
3:49 PM 39.2 °F 37.0 °F 39.2 °F 100% 29.51 in 2.0 mi Variable 3.5 mph - 0.07 in Rain Light Rain
3:53 PM 39.9 °F - 39.0 °F 97% 29.51 in 1.8 mi Calm Calm - 0.08 in Rain Rain
4:00 PM 41.0 °F 39.0 °F 37.4 °F 87% 29.51 in 3.0 mi Variable 3.5 mph - 0.00 in Rain Light Rain
4:03 PM 41.0 °F 35.8 °F 37.4 °F 87% 29.51 in 1.8 mi West 8.1 mph - 0.00 in Rain Light Rain
4:10 PM 41.0 °F 34.7 °F 37.4 °F 87% 29.51 in 1.0 mi West 10.4 mph - 0.03 in Rain Rain
4:16 PM 41.0 °F 34.7 °F 39.2 °F 93% 29.51 in 2.0 mi West 10.4 mph - 0.03 in Rain Light Rain
4:24 PM 41.0 °F 36.4 °F 39.2 °F 93% 29.51 in 5.0 mi WNW 6.9 mph - 0.03 in Rain Light Rain
4:36 PM 41.0 °F 36.4 °F 39.2 °F 93% 29.52 in 5.0 mi WNW 6.9 mph - 0.03 in   Overcast
4:47 PM 41.0 °F 33.1 °F 37.4 °F 87% 29.53 in 2.5 mi West 15.0 mph 23.0 mph 0.03 in Rain Light Rain
4:53 PM 39.9 °F 35.8 °F 37.0 °F 89% 29.53 in 2.0 mi Variable 5.8 mph 23.0 mph 0.05 in Rain Light Rain
5:00 PM 41.0 °F 38.0 °F 37.4 °F 87% 29.52 in 5.0 mi West 4.6 mph - N/A Rain Light Rain
5:53 PM 41.0 °F 33.5 °F 37.9 °F 89% 29.55 in 5.0 mi WNW 13.8 mph 20.7 mph 0.01 in   Mostly Cloudy
6:53 PM 41.0 °F 37.1 °F 36.0 °F 82% 29.57 in 6.0 mi West 5.8 mph - 0.01 in   Haze
7:53 PM 37.9 °F 35.5 °F 37.0 °F 97% 29.60 in 5.0 mi North 3.5 mph - N/A   Mostly Cloudy
8:22 PM 39.2 °F - 37.4 °F 93% 29.60 in 5.0 mi Calm Calm - 0.01 in Rain Light Rain
8:30 PM 37.4 °F 33.8 °F 35.6 °F 93% 29.60 in 6.0 mi NE 4.6 mph - 0.01 in Rain Light Rain
8:53 PM 37.0 °F - 37.0 °F 100% 29.61 in 5.0 mi Calm Calm - 0.01 in   Mostly Cloudy
9:43 PM 37.4 °F - 35.6 °F 93% 29.63 in 2.0 mi Calm Calm - 0.00 in Rain Rain
9:49 PM 39.2 °F - 35.6 °F 87% 29.63 in 3.0 mi Calm Calm - 0.04 in Rain Light Rain
9:53 PM 37.9 °F - 36.0 °F 93% 29.63 in 5.0 mi Calm Calm - 0.04 in Rain Light Rain
10:39 PM 35.6 °F 26.6 °F 35.6 °F 100% 29.65 in 2.0 mi West 13.8 mph 18.4 mph 0.03 in Rain Heavy Rain
10:42 PM 37.4 °F 29.3 °F 35.6 °F 93% 29.65 in 1.8 mi West 12.7 mph 18.4 mph 0.05 in Rain Heavy Rain
10:47 PM 37.4 °F 29.3 °F 35.6 °F 93% 29.65 in 3.0 mi WSW 12.7 mph - 0.05 in Rain Light Rain
10:53 PM 39.0 °F 31.4 °F 36.0 °F 89% 29.65 in 4.0 mi SW 12.7 mph - 0.06 in Rain Light Rain
11:29 PM 37.4 °F 30.8 °F 33.8 °F 87% 29.66 in 2.0 mi WSW 9.2 mph 17.3 mph 0.03 in Rain Light Rain
11:38 PM 39.2 °F 31.6 °F 35.6 °F 87% 29.66 in 7.0 mi WSW 12.7 mph - 0.03 in   Mostly Cloudy
11:53 PM 37.9 °F 34.4 °F 35.1 °F 89% 29.67 in 6.0 mi SW 4.6 mph - 0.03 in   Mostly Cloudy